Weather History for North Wilkesboro, NC

Change the Weather History Date:

Saturday, April 12, 2014

  Actual Average Record
Temperature  
Mean Temperature 61 °F -  
Max Temperature 78 °F 70 °F 86 °F (1977)
Min Temperature 44 °F 36 °F 23 °F (1973)
Degree Days  
Heating Degree Days 4    
Growing Degree Days 11 (Base 50)    
Moisture  
Dew Point 45 °F    
Average Humidity 55    
Maximum Humidity 87    
Minimum Humidity 34    
Precipitation  
Precipitation 0.00 in - - ()
Sea Level Pressure  
Sea Level Pressure 30.21 in    
Wind  
Wind Speed 3 mph (SSE)    
Max Wind Speed 13 mph    
Max Gust Speed 16 mph    
Visibility 10 miles    
Events      
Averages and records for this station are not official NWS values.
T = Trace of Precipitation, MM = Missing Value Source: NWS Daily Summary

Daily Weather History Graph

Daily Weather History Graph

Search for Another Location

Airport:

Trip Planner

Search our weather history database for the weather conditions in past years. The results will help you decide how hot, cold, wet, or windy it might be!

Date:

Astronomy

Apr. 12, 2014 Rise Set
Actual Time 6:55 AM EDT 7:55 PM EDT
Civil Twilight 6:28 AM EDT 8:22 PM EDT
Nautical Twilight 5:57 AM EDT 8:53 PM EDT
Astronomical Twilight 5:25 AM EDT 9:25 PM EDT
Moon 5:36 PM EDT (4/12) 5:16 AM EDT (4/12)
Length of Visible Light 13h 53m
Length of Day
13h 00m
Waxing Gibbous, 93% of the Moon is Illuminated
Apr 12
Waxing Gibbous
Apr 15
Full
Apr 22
Last Quarter
Apr 29
New
May 6
First Quarter

Hourly Weather History & Observations

Time (EDT) Temp. Dew Point Humidity Pressure Visibility Wind Dir Wind Speed Gust Speed Precip Events Conditions
12:15 AM 57.2 °F 39.2 °F 51% 30.18 in 10.0 mi West 4.6 mph - N/A   Clear
12:35 AM 59.0 °F 39.2 °F 48% 30.18 in 10.0 mi WSW 3.5 mph - N/A   Clear
12:55 AM 57.2 °F 39.2 °F 51% 30.18 in 10.0 mi West 3.5 mph - N/A   Clear
1:15 AM 55.4 °F 39.2 °F 54% 30.18 in 10.0 mi Calm Calm - N/A   Clear
1:35 AM 53.6 °F 39.2 °F 58% 30.17 in 10.0 mi Calm Calm - N/A   Clear
1:55 AM 53.6 °F 39.2 °F 58% 30.18 in 10.0 mi Calm Calm - N/A   Clear
2:15 AM 51.8 °F 39.2 °F 62% 30.17 in 10.0 mi Calm Calm - N/A   Clear
2:35 AM 51.8 °F 39.2 °F 62% 30.17 in 10.0 mi Calm Calm - N/A   Clear
2:55 AM 50.0 °F 41.0 °F 71% 30.17 in 10.0 mi North 4.6 mph - N/A   Clear
3:15 AM 50.0 °F 41.0 °F 71% 30.17 in 10.0 mi Calm Calm - N/A   Clear
3:35 AM 50.0 °F 41.0 °F 71% 30.17 in 10.0 mi Calm Calm - N/A   Clear
3:55 AM 48.2 °F 41.0 °F 76% 30.18 in 10.0 mi Calm Calm - N/A   Clear
4:15 AM 46.4 °F 41.0 °F 81% 30.17 in 10.0 mi Calm Calm - N/A   Clear
4:35 AM 46.4 °F 41.0 °F 81% 30.17 in 10.0 mi Calm Calm - N/A   Clear
4:55 AM 48.2 °F 41.0 °F 76% 30.18 in 10.0 mi Calm Calm - N/A   Clear
5:15 AM 46.4 °F 41.0 °F 81% 30.18 in 10.0 mi Calm Calm - N/A   Clear
5:35 AM 50.0 °F 41.0 °F 71% 30.19 in 10.0 mi Calm Calm - N/A   Clear
5:55 AM 46.4 °F 41.0 °F 81% 30.20 in 10.0 mi Calm Calm - N/A   Clear
6:15 AM 46.4 °F 41.0 °F 81% 30.20 in 10.0 mi Calm Calm - N/A   Clear
6:35 AM 44.6 °F 41.0 °F 87% 30.21 in 10.0 mi Calm Calm - N/A   Clear
6:55 AM 46.4 °F 41.0 °F 81% 30.23 in 10.0 mi Calm Calm - N/A   Clear
7:15 AM 44.6 °F 41.0 °F 87% 30.24 in 10.0 mi Calm Calm - N/A   Clear
7:35 AM 46.4 °F 41.0 °F 81% 30.24 in 10.0 mi Calm Calm - N/A   Clear
7:55 AM 46.4 °F 41.0 °F 81% 30.25 in 10.0 mi Calm Calm - N/A   Clear
8:15 AM 51.8 °F 44.6 °F 76% 30.26 in 10.0 mi Calm Calm - N/A   Clear
8:35 AM 53.6 °F 44.6 °F 72% 30.27 in 10.0 mi Calm Calm - N/A   Clear
8:55 AM 55.4 °F 46.4 °F 72% 30.27 in 10.0 mi Calm Calm - N/A   Clear
9:15 AM 59.0 °F 46.4 °F 63% 30.27 in 10.0 mi Calm Calm - N/A   Clear
9:35 AM 60.8 °F 46.4 °F 59% 30.28 in 10.0 mi Calm Calm - N/A   Clear
9:55 AM 62.6 °F 48.2 °F 59% 30.28 in 10.0 mi Calm Calm - N/A   Clear
10:15 AM 64.4 °F 46.4 °F 52% 30.29 in 10.0 mi Calm Calm - N/A   Clear
10:30 AM 68.0 °F 48.2 °F 49% 30.29 in 10.0 mi Calm Calm - N/A   Clear
10:55 AM 68.0 °F 48.2 °F 49% 30.29 in 10.0 mi ESE 5.8 mph - N/A   Clear
11:15 AM 69.8 °F 48.2 °F 46% 30.29 in 10.0 mi ESE 5.8 mph - N/A   Clear
11:35 AM 71.6 °F 50.0 °F 46% 30.29 in 10.0 mi East 5.8 mph - N/A   Clear
11:55 AM 71.6 °F 50.0 °F 46% 30.28 in 10.0 mi East 5.8 mph - N/A   Clear
12:15 PM 71.6 °F 50.0 °F 46% 30.27 in 10.0 mi SE 8.1 mph - N/A   Scattered Clouds
12:30 PM 73.4 °F 50.0 °F 44% 30.27 in 10.0 mi SE 8.1 mph - N/A   Clear
12:55 PM 73.4 °F 50.0 °F 44% 30.26 in 10.0 mi SSE 5.8 mph - N/A   Clear
1:15 PM 73.4 °F 48.2 °F 41% 30.25 in 10.0 mi Calm Calm - N/A   Scattered Clouds
1:35 PM 73.4 °F 48.2 °F 41% 30.24 in 10.0 mi SSE 3.5 mph - N/A   Scattered Clouds
1:55 PM 73.4 °F 50.0 °F 44% 30.23 in 10.0 mi SE 9.2 mph - N/A   Clear
2:15 PM 73.4 °F 50.0 °F 44% 30.23 in 10.0 mi ESE 5.8 mph - N/A   Mostly Cloudy
2:35 PM 75.2 °F 50.0 °F 41% 30.22 in 10.0 mi SE 10.4 mph 16.1 mph N/A   Scattered Clouds
2:55 PM 73.4 °F 48.2 °F 41% 30.22 in 10.0 mi SE 8.1 mph - N/A   Scattered Clouds
3:15 PM 77.0 °F 50.0 °F 39% 30.20 in 10.0 mi SE 6.9 mph - N/A   Mostly Cloudy
3:35 PM 78.8 °F 50.0 °F 36% 30.20 in 10.0 mi SSE 6.9 mph 16.1 mph N/A   Mostly Cloudy
3:55 PM 77.0 °F 48.2 °F 36% 30.19 in 10.0 mi South 11.5 mph - N/A   Scattered Clouds
4:15 PM 75.2 °F 50.0 °F 41% 30.18 in 10.0 mi SSE 8.1 mph - N/A   Scattered Clouds
4:35 PM 75.2 °F 46.4 °F 36% 30.17 in 10.0 mi South 5.8 mph - N/A   Scattered Clouds
4:55 PM 77.0 °F 46.4 °F 34% 30.17 in 10.0 mi SSE 10.4 mph - N/A   Scattered Clouds
5:15 PM 77.0 °F 46.4 °F 34% 30.17 in 10.0 mi South 12.7 mph - N/A   Mostly Cloudy
5:35 PM 77.0 °F 48.2 °F 36% 30.16 in 10.0 mi SSE 8.1 mph - N/A   Scattered Clouds
5:55 PM 77.0 °F 48.2 °F 36% 30.16 in 10.0 mi South 8.1 mph - N/A   Clear
6:15 PM 75.2 °F 46.4 °F 36% 30.16 in 10.0 mi South 4.6 mph - N/A   Scattered Clouds
6:35 PM 75.2 °F 46.4 °F 36% 30.16 in 10.0 mi SSE 8.1 mph - N/A   Mostly Cloudy
6:55 PM 73.4 °F 46.4 °F 38% 30.16 in 10.0 mi South 9.2 mph - N/A   Scattered Clouds
7:15 PM 71.6 °F 46.4 °F 41% 30.17 in 10.0 mi South 6.9 mph - N/A   Clear
7:35 PM 71.6 °F 46.4 °F 41% 30.17 in 10.0 mi South 4.6 mph - N/A   Clear
7:55 PM 69.8 °F 46.4 °F 43% 30.17 in 10.0 mi South 5.8 mph - N/A   Clear
8:15 PM 69.8 °F 44.6 °F 40% 30.17 in 10.0 mi South 4.6 mph - N/A   Clear
8:35 PM 69.8 °F 44.6 °F 40% 30.18 in 10.0 mi Calm Calm - N/A   Clear
8:55 PM 68.0 °F 44.6 °F 43% 30.18 in 10.0 mi Calm Calm - N/A   Clear
9:10 PM 66.2 °F 44.6 °F 46% 30.18 in 10.0 mi Calm Calm - N/A   Clear
9:35 PM 66.2 °F 44.6 °F 46% 30.19 in 10.0 mi Calm Calm - N/A   Clear
9:55 PM 62.6 °F 44.6 °F 52% 30.19 in 10.0 mi Calm Calm - N/A   Clear
10:15 PM 64.4 °F 44.6 °F 49% 30.20 in 10.0 mi Calm Calm - N/A   Clear
10:35 PM 62.6 °F 44.6 °F 52% 30.20 in 10.0 mi Calm Calm - N/A   Clear
10:55 PM 60.8 °F 44.6 °F 55% 30.20 in 10.0 mi Calm Calm - N/A   Clear
11:15 PM 60.8 °F 44.6 °F 55% 30.19 in 10.0 mi Calm Calm - N/A   Clear
11:35 PM 59.0 °F 44.6 °F 59% 30.19 in 10.0 mi Calm Calm - N/A   Clear
11:55 PM 59.0 °F 44.6 °F 59% 30.19 in 10.0 mi Calm Calm - N/A   Clear